Regional Weather Roundup
Issued by NWS

Home | Current Version | Previous Version | Graphics & Text | Print | Product List | Glossary On
Versions: 1 2 3 4 5 6 7 8 9 10 11 12 13 14 15 16 17 18 19 20 21 22 23 24 25 26 27 28 29 30 31 32 33 34 35 36 37 38 39 40 41 42 43 44 45 46 47 48 49 50
000
ASUS43 KLOT 280358
RWRIL

ILLINOIS REGIONAL WEATHER ROUNDUP
NATIONAL WEATHER SERVICE CHICAGO/ROMEOVILLE IL
1100 PM CDT WED AUG 27 2014

NOTE: "FAIR" INDICATES FEW OR NO CLOUDS BELOW 12,000 FEET WITH NO
SIGNIFICANT WEATHER AND/OR OBSTRUCTIONS TO VISIBILITY.

* THESE STATIONS ARE NOT UNDER NWS QUALITY CONTROL. THEY ALSO MAY NOT
  REPORT WEATHER SUCH AS PRECIPITATION OR FOG.

ILZ001-002-007-009-015-016-024-280500-
NORTHWEST ILLINOIS

CITY           SKY/WX    TMP DP  RH WIND       PRES   REMARKS
MOLINE         CLEAR     68  63  84 CALM      30.11S
$$

ILZ003-004-008-010-011-017-018-280500-
NORTH CENTRAL ILLINOIS

CITY           SKY/WX    TMP DP  RH WIND       PRES   REMARKS
ROCKFORD       NOT AVBL
$$

ILZ005-006-012>014-019>023-280500-
NORTHEAST ILLINOIS

CITY           SKY/WX    TMP DP  RH WIND       PRES   REMARKS
CHICAGO-OHARE  PTCLDY    68  59  73 E8        30.13S
CHICAGO-MIDWAY PTCLDY    71  63  75 E9        30.12F
AURORA         CLEAR     65  60  84 NE5       30.14R
WAUKEGAN       PTCLDY    62  58  86 NE3       30.13F
DUPAGE AIRPORT CLEAR     65  61  87 NE5       30.13S
WHEELING       CLEAR     67  62  84 E3        30.14F
NORTHERLY ISL    N/A     69  62  78 NE10        N/A
$$

LMZ740>746-280500-
SOUTHERN LAKE MICHIGAN

STATION/POSITION SKY/WX   TEMP    WIND        PRES    VSBY  WAVE
                          AIR SEA DIR/SP/G                  HT/PER
                          (F)     (DEG/KT/KT) (MB)    (MI)  (FT/S)
SOUTHERN BUOY              68 69   40/ 12/ 14 1020.5R         2/ 3
WAUKEGAN HARBOR            69      70/  9/ 10   N/A
HARRISON CRIB              69      60/ 11/ 14   N/A
BURNHAM HARBOR             69      50/  9/ 11   N/A
CALUMET HARBOR             69      30/  7/ 12 1018.8F
MICHIGAN CITY              67      80/  6/  8   N/A
MICHIGAN CITY 6N           70 74   70/ 12/ 16   N/A           3/ 4
ST. JOSEPH                 69 73   50/ 12/ 14   N/A           2/ 4
$$

ILZ025>027-034>036-040-047-049-050-058-095>099-280500-
WEST-CENTRAL ILLINOIS

CITY           SKY/WX    TMP DP  RH WIND       PRES   REMARKS
$$

ILZ028>032-037-038-041>044-048-051>054-059>061-280500-
CENTRAL ILLINOIS

CITY           SKY/WX    TMP DP  RH WIND       PRES   REMARKS
PEORIA         NOT AVBL
SPRINGFIELD    MOCLDY    77  71  82 E7        30.08F
TAYLORVILLE    NOT AVBL
$$

ILZ033-039-045-046-055>057-062-063-280500-
EAST-CENTRAL ILLINOIS

CITY           SKY/WX    TMP DP  RH WIND       PRES   REMARKS
CHAMPAIGN      PTCLDY    71  67  87 NE7       30.10S
$$

ILZ079-100>102-280500-
SOUTHWEST ILLINOIS

CITY           SKY/WX    TMP DP  RH WIND       PRES   REMARKS
$$

ILZ064>066-069>071-074>076-080>082-084>086-088>090-092>094-280500-
SOUTH-CENTRAL ILLINOIS

CITY           SKY/WX    TMP DP  RH WIND       PRES   REMARKS
CARBONDALE     CLOUDY    75  70  84 CALM      30.06F
$$

ILZ067-068-072-073-078-083-087-091-280500-
SOUTHEAST ILLINOIS

CITY           SKY/WX    TMP DP  RH WIND       PRES   REMARKS
$$

ABBREVIATIONS USED IN REMARKS
   TC - TEMPERATURE IN CELSIUS
  WCI - WIND CHILL INDEX
   HX - HEAT INDEX
  VSB - VISIBILITY
$$



USA.gov is the U.S. government's official web portal to all federal, state and local government web resources and services.